QPF
0.01 0.01 0.01 0.01 0.01 0.01 0.00 0.00 0.00 0.00 0.00 0.00 0.00 0.01 0.00 0.00 0.01 0.01 0.01 0.01 0.01 0.01 0.02 0.02 0.02 0.02 0.03 0.03 0.03 0.03 0.04 0.04 0.04 0.04 0.04 0.06 0.10 0.09 0.07 0.04 0.02 0.02 0.03
0.00 0.00 0.01 0.01 0.01 0.01 0.00 0.00 0.00 0.00 0.00 0.00 0.00 0.00 0.00 0.00 0.00 0.00 0.01 0.01 0.01 0.01 0.01 0.02 0.01 0.01 0.02 0.02 0.03 0.03 0.05 0.05 0.05 0.06 0.07 0.07 0.07 0.06 0.04 0.02 0.01 0.03 0.04
0.00 0.00 0.01 0.01 0.01 0.01 0.00 0.00 0.00 0.00 0.00 0.00 0.00 0.00 0.00 0.00 0.00 0.01 0.01 0.01 0.01 0.01 0.01 0.01 0.01 0.01 0.02 0.02 0.02 0.03 0.06 0.06 0.08 0.09 0.08 0.02 0.03 0.05 0.04 0.03 0.03 0.05 0.04
0.01 0.01 0.00 0.01 0.01 0.01 0.00 0.00 0.00 0.00 0.00 0.00 0.00 0.00 0.01 0.01 0.01 0.01 0.01 0.01 0.01 0.02 0.02 0.01 0.01 0.02 0.02 0.02 0.02 0.03 0.05 0.07 0.07 0.05 0.03 0.01 0.02 0.05 0.05 0.05 0.03 0.04 0.04
0.01 0.01 0.01 0.01 0.01 0.00 0.00 0.00 0.00 0.00 0.00 0.00 0.01 0.01 0.01 0.01 0.01 0.01 0.01 0.01 0.02 0.02 0.01 0.01 0.01 0.02 0.02 0.03 0.03 0.05 0.06 0.05 0.05 0.02 0.01 0.01 0.02 0.07 0.04 0.03 0.03 0.03 0.03
0.01 0.01 0.01 0.01 0.00 0.00 0.00 0.00 0.00 0.00 0.00 0.00 0.01 0.01 0.01 0.01 0.01 0.01 0.01 0.01 0.02 0.02 0.01 0.02 0.02 0.02 0.03 0.04 0.05 0.06 0.08 0.07 0.04 0.01 0.01 0.02 0.03 0.05 0.03 0.03 0.04 0.03 0.02
0.00 0.01 0.01 0.01 0.00 0.00 0.00 0.00 0.00 0.00 0.00 0.00 0.01 0.01 0.01 0.01 0.01 0.01 0.01 0.01 0.01 0.01 0.01 0.01 0.02 0.03 0.03 0.06 0.07 0.07 0.09 0.07 0.02 0.01 0.01 0.01 0.03 0.05 0.03 0.04 0.04 0.03 0.02
0.01 0.01 0.01 0.01 0.00 0.00 0.00 0.00 0.01 0.00 0.01 0.01 0.01 0.01 0.01 0.01 0.01 0.01 0.01 0.01 0.01 0.01 0.01 0.01 0.01 0.03 0.03 0.04 0.06 0.07 0.09 0.06 0.02 0.01 0.01 0.01 0.03 0.04 0.04 0.05 0.04 0.03 0.02
0.02 0.01 0.01 0.01 0.01 0.01 0.01 0.01 0.01 0.01 0.01 0.01 0.01 0.01 0.01 0.01 0.00 0.01 0.01 0.01 0.01 0.01 0.02 0.02 0.02 0.03 0.02 0.03 0.06 0.07 0.08 0.06 0.02 0.01 0.01 0.01 0.03 0.04 0.04 0.05 0.05 0.05 0.02
0.03 0.02 0.01 0.01 0.01 0.01 0.01 0.01 0.01 0.01 0.01 0.01 0.01 0.00 0.01 0.01 0.01 0.01 0.01 0.01 0.01 0.01 0.01 0.01 0.01 0.02 0.02 0.03 0.04 0.07 0.10 0.06 0.01 0.00 0.00 0.02 0.02 0.03 0.04 0.04 0.04 0.04 0.04
0.02 0.03 0.01 0.01 0.00 0.01 0.01 0.01 0.01 0.01 0.01 0.02 0.02 0.01 0.01 0.01 0.01 0.00 0.00 0.01 0.00 0.00 0.01 0.01 0.01 0.01 0.01 0.02 0.04 0.07 0.08 0.03 0.01 0.00 0.00 0.02 0.04 0.03 0.04 0.04 0.04 0.05 0.05
0.02 0.02 0.03 0.02 0.01 0.01 0.01 0.01 0.01 0.02 0.02 0.01 0.01 0.01 0.01 0.00 0.00 0.00 0.01 0.01 0.01 0.00 0.01 0.01 0.01 0.01 0.01 0.01 0.03 0.05 0.04 0.02 0.01 0.01 0.01 0.02 0.04 0.04 0.05 0.05 0.05 0.04 0.04
0.02 0.03 0.05 0.04 0.02 0.01 0.02 0.02 0.02 0.01 0.01 0.01 0.01 0.01 0.00 0.00 0.00 0.00 0.00 0.01 0.01 0.00 0.00 0.01 0.01 0.01 0.00 0.01 0.02 0.03 0.02 0.03 0.01 0.01 0.01 0.03 0.04 0.06 0.06 0.07 0.06 0.05 0.04
0.06 0.10 0.12 0.10 0.06 0.03 0.02 0.02 0.02 0.02 0.01 0.01 0.01 0.00 0.00 0.00 0.00 0.00 0.00 0.00 0.00 0.00 0.00 0.00 0.00 0.01 0.01 0.02 0.02 0.03 0.03 0.03 0.01 0.01 0.02 0.04 0.05 0.07 0.08 0.08 0.07 0.04 0.04
0.13 0.11 0.08 0.07 0.05 0.05 0.04 0.04 0.05 0.04 0.03 0.02 0.01 0.01 0.01 0.01 0.00 0.00 0.01 0.01 0.00 0.00 0.00 0.00 0.00 0.01 0.01 0.02 0.02 0.03 0.03 0.02 0.02 0.02 0.02 0.06 0.06 0.06 0.07 0.06 0.05 0.04 0.04
0.20 0.22 0.13 0.10 0.09 0.09 0.07 0.06 0.07 0.06 0.05 0.03 0.02 0.02 0.02 0.02 0.01 0.00 0.01 0.01 0.01 0.01 0.01 0.01 0.01 0.01 0.01 0.02 0.02 0.02 0.02 0.01 0.02 0.02 0.01 0.03 0.05 0.05 0.07 0.08 0.09 0.09 0.07
0.26 0.39 0.25 0.19 0.17 0.15 0.12 0.10 0.08 0.06 0.04 0.04 0.03 0.03 0.03 0.04 0.03 0.01 0.01 0.01 0.01 0.00 0.00 0.01 0.01 0.02 0.02 0.02 0.01 0.02 0.02 0.01 0.01 0.01 0.01 0.02 0.03 0.04 0.05 0.07 0.08 0.10 0.10
0.29 0.40 0.35 0.21 0.23 0.28 0.24 0.17 0.09 0.04 0.03 0.04 0.05 0.03 0.04 0.04 0.03 0.01 0.01 0.01 0.01 0.01 0.01 0.02 0.02 0.02 0.02 0.02 0.02 0.01 0.01 0.01 0.01 0.00 0.01 0.02 0.02 0.03 0.05 0.07 0.07 0.08 0.10
0.28 0.35 0.32 0.22 0.25 0.28 0.19 0.12 0.10 0.08 0.07 0.07 0.04 0.03 0.03 0.03 0.03 0.01 0.01 0.01 0.01 0.01 0.02 0.02 0.02 0.02 0.02 0.02 0.01 0.01 0.01 0.01 0.01 0.01 0.01 0.02 0.01 0.02 0.03 0.06 0.08 0.06 0.08
0.22 0.29 0.29 0.30 0.24 0.20 0.16 0.12 0.14 0.14 0.12 0.08 0.05 0.04 0.04 0.04 0.03 0.01 0.01 0.01 0.00 0.01 0.02 0.02 0.02 0.01 0.01 0.02 0.02 0.01 0.01 0.01 0.01 0.01 0.02 0.01 0.01 0.01 0.01 0.02 0.03 0.03 0.06
0.17 0.22 0.26 0.37 0.31 0.20 0.13 0.09 0.10 0.10 0.10 0.08 0.06 0.05 0.05 0.06 0.04 0.02 0.01 0.01 0.01 0.01 0.01 0.01 0.01 0.01 0.01 0.01 0.01 0.01 0.01 0.01 0.01 0.01 0.01 0.02 0.01 0.01 0.01 0.01 0.01 0.01 0.01
0.09 0.15 0.25 0.29 0.25 0.20 0.14 0.11 0.11 0.12 0.13 0.11 0.09 0.07 0.06 0.05 0.04 0.02 0.01 0.01 0.01 0.01 0.01 0.01 0.01 0.01 0.01 0.01 0.00 0.01 0.01 0.01 0.01 0.01 0.01 0.01 0.01 0.01 0.01 0.01 0.01 0.00 0.00
0.07 0.10 0.20 0.23 0.20 0.16 0.14 0.13 0.11 0.12 0.13 0.12 0.10 0.07 0.05 0.05 0.04 0.02 0.01 0.01 0.01 0.00 0.00 0.00 0.01 0.01 0.01 0.00 0.00 0.00 0.00 0.00 0.00 0.00 0.00 0.01 0.01 0.01 0.00 0.00 0.00 0.00 0.00
0.07 0.10 0.17 0.22 0.19 0.17 0.15 0.12 0.08 0.07 0.07 0.06 0.07 0.07 0.07 0.05 0.04 0.03 0.02 0.01 0.00 0.00 0.01 0.01 0.01 0.01 0.01 0.00 0.00 0.00 0.00 0.00 0.00 0.00 0.00 0.00 0.00 0.00 0.00 0.00 0.00 0.00 0.00
0.06 0.09 0.14 0.22 0.27 0.23 0.19 0.15 0.10 0.09 0.08 0.08 0.09 0.08 0.07 0.06 0.04 0.03 0.03 0.02 0.00 0.00 0.01 0.01 0.01 0.01 0.01 0.00 0.00 0.00 0.00 0.00 0.00 0.00 0.00 0.00 0.00 0.00 0.00 0.00 0.00 0.00 0.00
0.06 0.07 0.09 0.19 0.26 0.26 0.24 0.20 0.15 0.10 0.08 0.08 0.05 0.04 0.05 0.06 0.05 0.04 0.03 0.02 0.02 0.02 0.01 0.01 0.01 0.01 0.01 0.00 0.00 0.00 0.00 0.00 0.00 0.00 0.00 0.00 0.00 0.00 0.00 0.00 0.00 0.00 0.00
MSLP
1010.69 1010.44 1010.42 1010.63 1011.00 1011.44 1011.86 1012.18 1012.37 1012.43 1012.43 1012.42 1012.47 1012.63 1012.89 1013.25 1013.64 1014.00 1014.29 1014.48 1014.57 1014.58 1014.55 1014.53 1014.57 1014.68 1014.85 1015.08 1015.33 1015.57 1015.78 1015.95 1016.08 1016.18 1016.27 1016.38 1016.50 1016.66 1016.83 1017.02 1017.21 1017.39 1017.57
1010.29 1010.16 1010.26 1010.57 1011.02 1011.54 1012.01 1012.39 1012.62 1012.74 1012.77 1012.81 1012.89 1013.07 1013.34 1013.69 1014.05 1014.39 1014.65 1014.80 1014.87 1014.87 1014.85 1014.85 1014.90 1015.02 1015.20 1015.41 1015.64 1015.85 1016.03 1016.18 1016.31 1016.43 1016.56 1016.70 1016.87 1017.05 1017.25 1017.44 1017.63 1017.81 1017.97
1009.85 1009.84 1010.05 1010.45 1010.99 1011.58 1012.12 1012.56 1012.87 1013.04 1013.14 1013.23 1013.36 1013.55 1013.83 1014.15 1014.47 1014.75 1014.96 1015.07 1015.11 1015.11 1015.10 1015.12 1015.19 1015.32 1015.50 1015.70 1015.91 1016.09 1016.26 1016.40 1016.54 1016.69 1016.85 1017.04 1017.24 1017.46 1017.67 1017.86 1018.04 1018.21 1018.36
1009.46 1009.56 1009.86 1010.34 1010.95 1011.60 1012.21 1012.71 1013.08 1013.33 1013.49 1013.64 1013.80 1014.01 1014.28 1014.56 1014.83 1015.06 1015.21 1015.28 1015.31 1015.30 1015.31 1015.36 1015.47 1015.62 1015.80 1016.00 1016.18 1016.35 1016.51 1016.65 1016.81 1016.99 1017.19 1017.42 1017.65 1017.88 1018.09 1018.28 1018.44 1018.59 1018.73
1009.20 1009.38 1009.75 1010.29 1010.94 1011.63 1012.27 1012.82 1013.23 1013.54 1013.77 1013.96 1014.16 1014.39 1014.64 1014.89 1015.12 1015.29 1015.40 1015.46 1015.48 1015.49 1015.54 1015.63 1015.77 1015.95 1016.14 1016.34 1016.51 1016.67 1016.82 1016.97 1017.15 1017.35 1017.59 1017.84 1018.09 1018.32 1018.52 1018.69 1018.83 1018.95 1019.08
1009.12 1009.35 1009.76 1010.32 1010.99 1011.68 1012.33 1012.88 1013.32 1013.66 1013.93 1014.16 1014.39 1014.64 1014.89 1015.12 1015.33 1015.48 1015.57 1015.62 1015.66 1015.72 1015.81 1015.94 1016.13 1016.33 1016.55 1016.74 1016.91 1017.06 1017.21 1017.37 1017.56 1017.79 1018.04 1018.31 1018.56 1018.78 1018.95 1019.09 1019.19 1019.30 1019.42
1009.21 1009.48 1009.90 1010.46 1011.10 1011.76 1012.38 1012.91 1013.34 1013.69 1013.98 1014.24 1014.50 1014.77 1015.04 1015.28 1015.49 1015.65 1015.75 1015.83 1015.90 1016.00 1016.14 1016.33 1016.55 1016.79 1017.01 1017.21 1017.37 1017.52 1017.66 1017.82 1018.02 1018.26 1018.52 1018.79 1019.03 1019.23 1019.37 1019.47 1019.54 1019.62 1019.74
1009.44 1009.73 1010.15 1010.69 1011.29 1011.89 1012.44 1012.92 1013.32 1013.65 1013.94 1014.23 1014.52 1014.83 1015.13 1015.41 1015.65 1015.84 1015.98 1016.10 1016.22 1016.36 1016.55 1016.77 1017.02 1017.27 1017.50 1017.69 1017.85 1017.98 1018.11 1018.27 1018.47 1018.71 1018.97 1019.24 1019.46 1019.64 1019.75 1019.82 1019.86 1019.93 1020.03
1009.76 1010.07 1010.49 1010.99 1011.53 1012.06 1012.54 1012.95 1013.30 1013.60 1013.89 1014.19 1014.52 1014.87 1015.22 1015.56 1015.85 1016.08 1016.27 1016.43 1016.59 1016.77 1016.99 1017.23 1017.49 1017.74 1017.96 1018.13 1018.27 1018.39 1018.51 1018.66 1018.86 1019.09 1019.35 1019.61 1019.82 1019.98 1020.08 1020.13 1020.16 1020.21 1020.31
1010.08 1010.43 1010.85 1011.34 1011.83 1012.29 1012.70 1013.04 1013.32 1013.59 1013.87 1014.19 1014.55 1014.95 1015.37 1015.76 1016.10 1016.39 1016.62 1016.82 1017.00 1017.19 1017.41 1017.64 1017.89 1018.12 1018.32 1018.48 1018.60 1018.71 1018.82 1018.96 1019.14 1019.37 1019.63 1019.88 1020.09 1020.25 1020.35 1020.40 1020.44 1020.49 1020.59
1010.36 1010.75 1011.20 1011.68 1012.15 1012.56 1012.91 1013.19 1013.43 1013.66 1013.94 1014.27 1014.66 1015.11 1015.57 1016.02 1016.41 1016.74 1017.00 1017.21 1017.39 1017.57 1017.77 1017.98 1018.20 1018.40 1018.58 1018.71 1018.82 1018.91 1019.01 1019.14 1019.32 1019.54 1019.79 1020.05 1020.27 1020.45 1020.57 1020.64 1020.70 1020.76 1020.86
1010.55 1011.00 1011.49 1011.99 1012.45 1012.84 1013.16 1013.40 1013.61 1013.83 1014.09 1014.43 1014.85 1015.33 1015.83 1016.31 1016.74 1017.10 1017.37 1017.57 1017.74 1017.89 1018.05 1018.22 1018.40 1018.57 1018.72 1018.85 1018.95 1019.03 1019.13 1019.25 1019.42 1019.64 1019.89 1020.15 1020.39 1020.59 1020.75 1020.86 1020.94 1021.03 1021.14
1010.63 1011.14 1011.69 1012.22 1012.70 1013.10 1013.42 1013.65 1013.85 1014.06 1014.32 1014.66 1015.08 1015.57 1016.09 1016.60 1017.04 1017.41 1017.68 1017.87 1018.01 1018.13 1018.24 1018.37 1018.52 1018.67 1018.81 1018.93 1019.04 1019.13 1019.23 1019.35 1019.51 1019.71 1019.95 1020.21 1020.46 1020.70 1020.89 1021.05 1021.18 1021.29 1021.42
1010.60 1011.17 1011.77 1012.35 1012.87 1013.30 1013.64 1013.89 1014.10 1014.30 1014.56 1014.89 1015.31 1015.79 1016.31 1016.82 1017.27 1017.64 1017.90 1018.08 1018.20 1018.29 1018.38 1018.48 1018.60 1018.75 1018.89 1019.03 1019.15 1019.27 1019.37 1019.49 1019.63 1019.82 1020.03 1020.28 1020.54 1020.79 1021.02 1021.22 1021.39 1021.54 1021.68
1010.49 1011.09 1011.72 1012.35 1012.92 1013.40 1013.78 1014.07 1014.30 1014.52 1014.77 1015.09 1015.48 1015.94 1016.44 1016.94 1017.39 1017.75 1018.02 1018.21 1018.33 1018.41 1018.48 1018.58 1018.71 1018.86 1019.03 1019.20 1019.35 1019.49 1019.61 1019.72 1019.85 1020.00 1020.18 1020.40 1020.64 1020.89 1021.13 1021.36 1021.57 1021.74 1021.90
1010.32 1010.92 1011.56 1012.22 1012.84 1013.38 1013.82 1014.17 1014.44 1014.68 1014.93 1015.22 1015.58 1016.00 1016.47 1016.94 1017.39 1017.76 1018.05 1018.26 1018.40 1018.50 1018.60 1018.72 1018.86 1019.05 1019.25 1019.46 1019.66 1019.82 1019.96 1020.07 1020.17 1020.27 1020.40 1020.57 1020.76 1020.99 1021.23 1021.47 1021.69 1021.89 1022.05
1010.14 1010.70 1011.33 1012.01 1012.67 1013.27 1013.78 1014.19 1014.51 1014.78 1015.02 1015.29 1015.60 1015.98 1016.41 1016.86 1017.30 1017.69 1018.02 1018.27 1018.46 1018.61 1018.74 1018.90 1019.08 1019.30 1019.55 1019.80 1020.03 1020.23 1020.38 1020.49 1020.56 1020.61 1020.68 1020.78 1020.91 1021.09 1021.30 1021.52 1021.75 1021.95 1022.13
1009.98 1010.47 1011.07 1011.75 1012.44 1013.10 1013.69 1014.17 1014.55 1014.84 1015.09 1015.32 1015.60 1015.92 1016.30 1016.73 1017.17 1017.59 1017.96 1018.27 1018.52 1018.72 1018.91 1019.10 1019.32 1019.58 1019.86 1020.15 1020.43 1020.65 1020.82 1020.92 1020.97 1020.98 1020.98 1021.01 1021.07 1021.18 1021.34 1021.53 1021.73 1021.94 1022.11
1009.87 1010.29 1010.84 1011.50 1012.22 1012.94 1013.60 1014.15 1014.59 1014.92 1015.17 1015.38 1015.61 1015.88 1016.21 1016.61 1017.04 1017.48 1017.89 1018.26 1018.57 1018.84 1019.07 1019.31 1019.56 1019.84 1020.15 1020.46 1020.77 1021.02 1021.21 1021.32 1021.35 1021.33 1021.28 1021.23 1021.22 1021.25 1021.35 1021.49 1021.66 1021.85 1022.02
1009.84 1010.19 1010.69 1011.33 1012.06 1012.83 1013.55 1014.18 1014.68 1015.05 1015.31 1015.50 1015.68 1015.89 1016.18 1016.53 1016.95 1017.40 1017.85 1018.27 1018.63 1018.94 1019.21 1019.47 1019.73 1020.02 1020.34 1020.67 1020.99 1021.28 1021.49 1021.62 1021.66 1021.62 1021.53 1021.43 1021.35 1021.32 1021.34 1021.43 1021.56 1021.71 1021.87
1009.90 1010.18 1010.63 1011.25 1011.99 1012.79 1013.58 1014.27 1014.83 1015.24 1015.51 1015.69 1015.83 1015.99 1016.22 1016.53 1016.92 1017.37 1017.83 1018.27 1018.67 1019.01 1019.29 1019.56 1019.82 1020.10 1020.41 1020.75 1021.08 1021.39 1021.64 1021.80 1021.87 1021.84 1021.74 1021.61 1021.48 1021.38 1021.34 1021.36 1021.44 1021.56 1021.69
1010.02 1010.26 1010.66 1011.26 1012.00 1012.83 1013.65 1014.41 1015.02 1015.47 1015.76 1015.93 1016.03 1016.15 1016.32 1016.59 1016.94 1017.37 1017.83 1018.27 1018.68 1019.02 1019.31 1019.56 1019.81 1020.07 1020.37 1020.70 1021.05 1021.39 1021.67 1021.88 1021.99 1021.99 1021.91 1021.77 1021.61 1021.46 1021.36 1021.32 1021.34 1021.41 1021.50
1010.19 1010.39 1010.76 1011.32 1012.05 1012.88 1013.74 1014.53 1015.19 1015.68 1015.99 1016.16 1016.25 1016.33 1016.46 1016.68 1016.99 1017.38 1017.82 1018.26 1018.66 1019.00 1019.27 1019.51 1019.73 1019.97 1020.25 1020.58 1020.94 1021.30 1021.63 1021.89 1022.05 1022.10 1022.04 1021.91 1021.74 1021.56 1021.41 1021.31 1021.26 1021.27 1021.32
1010.37 1010.54 1010.87 1011.39 1012.08 1012.90 1013.75 1014.57 1015.26 1015.79 1016.14 1016.33 1016.42 1016.48 1016.58 1016.76 1017.03 1017.39 1017.80 1018.22 1018.61 1018.94 1019.20 1019.43 1019.63 1019.85 1020.12 1020.44 1020.80 1021.18 1021.55 1021.86 1022.07 1022.17 1022.16 1022.05 1021.87 1021.67 1021.48 1021.32 1021.21 1021.16 1021.15
1010.51 1010.66 1010.94 1011.40 1012.04 1012.81 1013.65 1014.47 1015.19 1015.76 1016.14 1016.37 1016.48 1016.55 1016.64 1016.80 1017.04 1017.37 1017.76 1018.17 1018.54 1018.87 1019.13 1019.35 1019.55 1019.76 1020.01 1020.33 1020.69 1021.09 1021.48 1021.82 1022.08 1022.22 1022.24 1022.16 1021.99 1021.78 1021.55 1021.34 1021.17 1021.05 1020.98
1010.60 1010.72 1010.94 1011.33 1011.89 1012.61 1013.41 1014.21 1014.95 1015.55 1015.99 1016.27 1016.43 1016.53 1016.64 1016.79 1017.03 1017.34 1017.72 1018.11 1018.49 1018.82 1019.09 1019.31 1019.52 1019.73 1019.97 1020.28 1020.63 1021.03 1021.42 1021.78 1022.06 1022.23 1022.28 1022.22 1022.06 1021.84 1021.59 1021.34 1021.12 1020.94 1020.81
Thickness
5777 5778 5775 5773 5772 5771 5770 5769 5769 5768 5767 5766 5765 5764 5763 5762 5761 5760 5759 5758 5757 5757 5756 5755 5754 5753 5751 5750 5749 5748 5746 5745 5744 5743 5742 5740 5739 5738 5737 5736 5735 5734 5733
5784 5779 5775 5773 5771 5770 5768 5767 5766 5765 5765 5764 5763 5762 5761 5760 5759 5758 5757 5756 5755 5755 5753 5752 5751 5750 5749 5747 5746 5745 5744 5742 5742 5741 5739 5738 5736 5735 5735 5733 5732 5731 5730
5785 5779 5775 5772 5770 5768 5767 5765 5764 5763 5762 5761 5760 5760 5759 5758 5757 5756 5755 5754 5754 5752 5751 5749 5748 5747 5746 5745 5743 5742 5741 5739 5738 5737 5736 5735 5734 5733 5732 5731 5730 5729 5728
5784 5779 5775 5771 5768 5766 5764 5763 5762 5760 5759 5759 5758 5757 5757 5756 5755 5754 5753 5752 5751 5750 5748 5747 5745 5744 5743 5742 5741 5739 5738 5737 5736 5734 5733 5732 5731 5730 5730 5729 5728 5727 5726
5783 5778 5774 5770 5767 5764 5762 5761 5760 5758 5757 5756 5756 5755 5755 5754 5753 5752 5751 5750 5749 5747 5746 5744 5743 5742 5740 5739 5738 5737 5735 5734 5733 5731 5730 5730 5729 5728 5727 5727 5726 5725 5724
5781 5777 5773 5769 5766 5763 5760 5759 5757 5756 5755 5754 5754 5753 5752 5751 5750 5750 5749 5748 5746 5745 5743 5742 5741 5739 5738 5736 5735 5734 5733 5731 5730 5728 5728 5727 5726 5726 5725 5724 5723 5722 5721
5780 5776 5772 5768 5764 5761 5759 5757 5755 5754 5753 5752 5751 5751 5750 5749 5748 5747 5747 5745 5744 5743 5741 5739 5738 5737 5735 5734 5733 5732 5730 5729 5727 5726 5725 5724 5724 5723 5723 5722 5721 5720 5719
5780 5775 5771 5767 5763 5760 5758 5756 5754 5752 5751 5750 5749 5748 5747 5746 5746 5745 5744 5743 5742 5740 5738 5737 5736 5734 5733 5732 5731 5730 5728 5726 5724 5723 5722 5722 5721 5721 5720 5719 5718 5718 5717
5777 5773 5770 5766 5762 5759 5756 5754 5752 5751 5749 5748 5747 5746 5745 5744 5743 5743 5742 5741 5740 5738 5736 5735 5734 5732 5731 5730 5729 5728 5726 5724 5722 5721 5720 5719 5719 5718 5718 5717 5716 5716 5715
5775 5771 5767 5764 5760 5757 5754 5752 5750 5749 5747 5746 5745 5744 5743 5742 5741 5740 5740 5739 5738 5736 5735 5733 5732 5730 5729 5728 5727 5726 5725 5722 5720 5719 5718 5717 5717 5716 5716 5715 5714 5713 5713
5770 5767 5764 5761 5757 5754 5752 5750 5748 5746 5745 5744 5743 5743 5742 5740 5739 5738 5737 5737 5736 5734 5733 5731 5730 5729 5728 5727 5726 5724 5723 5721 5719 5717 5716 5715 5715 5714 5714 5713 5712 5711 5711
5767 5764 5761 5758 5754 5752 5749 5747 5745 5744 5743 5742 5741 5740 5739 5738 5737 5736 5735 5735 5734 5733 5731 5730 5728 5728 5727 5725 5724 5723 5721 5719 5718 5716 5715 5714 5713 5712 5712 5711 5710 5709 5709
5768 5763 5758 5754 5752 5749 5747 5745 5743 5741 5740 5739 5739 5738 5737 5736 5735 5734 5734 5733 5732 5731 5730 5728 5727 5726 5725 5724 5723 5721 5720 5718 5717 5715 5713 5712 5711 5711 5710 5709 5708 5707 5707
5764 5760 5757 5753 5749 5746 5744 5741 5739 5737 5736 5736 5736 5736 5735 5734 5733 5732 5731 5731 5730 5729 5728 5727 5726 5725 5724 5723 5722 5721 5719 5717 5716 5714 5713 5711 5710 5709 5709 5708 5707 5706 5705
5763 5758 5755 5751 5747 5743 5740 5738 5736 5734 5734 5733 5734 5733 5732 5732 5731 5730 5729 5729 5729 5728 5727 5726 5725 5724 5723 5722 5721 5720 5719 5717 5715 5714 5712 5711 5710 5708 5707 5707 5706 5705 5704
5762 5757 5754 5749 5744 5741 5738 5736 5733 5732 5732 5731 5731 5731 5730 5730 5729 5729 5728 5727 5727 5727 5727 5726 5725 5724 5723 5722 5721 5719 5718 5716 5715 5713 5712 5710 5709 5708 5707 5706 5705 5704 5703
5759 5755 5751 5747 5742 5739 5737 5734 5731 5730 5730 5729 5729 5729 5728 5728 5728 5728 5727 5726 5727 5726 5726 5725 5724 5723 5722 5720 5719 5718 5717 5716 5715 5713 5711 5710 5709 5707 5706 5705 5704 5703 5702
5759 5753 5748 5745 5740 5737 5735 5733 5730 5728 5728 5727 5727 5727 5727 5727 5727 5727 5726 5726 5726 5726 5725 5724 5723 5721 5719 5718 5717 5717 5716 5715 5714 5712 5711 5710 5708 5707 5706 5705 5704 5702 5701
5759 5752 5746 5743 5739 5736 5734 5732 5729 5727 5726 5726 5726 5726 5726 5726 5726 5726 5726 5725 5725 5725 5724 5724 5721 5720 5718 5717 5716 5715 5714 5714 5713 5712 5711 5710 5709 5708 5707 5705 5704 5703 5702
5757 5751 5747 5742 5739 5735 5732 5729 5727 5725 5725 5725 5725 5726 5726 5726 5725 5725 5725 5724 5724 5724 5723 5722 5720 5719 5717 5715 5715 5713 5712 5712 5712 5712 5711 5710 5709 5708 5707 5706 5705 5704 5703
5755 5750 5746 5741 5737 5735 5731 5728 5725 5723 5724 5724 5725 5725 5725 5725 5725 5725 5724 5724 5724 5723 5722 5722 5720 5717 5715 5714 5711 5709 5709 5711 5711 5711 5711 5711 5710 5709 5708 5707 5706 5705 5704
5755 5750 5746 5741 5738 5735 5732 5730 5727 5725 5724 5725 5725 5725 5725 5725 5725 5724 5724 5724 5723 5722 5721 5721 5720 5716 5714 5713 5710 5706 5703 5704 5708 5711 5711 5711 5711 5710 5709 5708 5707 5706 5705
5755 5751 5746 5742 5738 5734 5732 5729 5726 5723 5722 5721 5723 5724 5725 5725 5724 5724 5725 5724 5723 5723 5721 5720 5720 5717 5713 5712 5712 5709 5702 5699 5703 5708 5709 5711 5711 5711 5710 5710 5709 5708 5707
5757 5752 5747 5742 5738 5734 5731 5729 5727 5724 5722 5723 5724 5724 5724 5724 5724 5724 5724 5724 5723 5723 5721 5721 5720 5719 5716 5712 5711 5711 5710 5708 5703 5702 5706 5709 5710 5711 5711 5711 5710 5709 5708
5758 5752 5748 5742 5738 5735 5732 5730 5728 5726 5725 5724 5724 5723 5723 5723 5724 5724 5724 5723 5723 5722 5721 5720 5719 5718 5717 5715 5713 5711 5709 5707 5706 5704 5702 5705 5708 5711 5712 5711 5711 5710 5710
5757 5752 5747 5742 5737 5735 5733 5730 5728 5726 5724 5722 5722 5721 5721 5722 5723 5723 5723 5722 5722 5721 5721 5720 5719 5718 5717 5716 5715 5713 5711 5709 5706 5705 5703 5703 5704 5709 5711 5712 5712 5711 5711